OBJECT J, 44887

Orbit data source: Space-Track

You're viewing an Uncataloged Satellite

Recently launched and/or uncataloged satellites may have evolving metadata. Metadata may include but not limited to: Owner, Maufacturer, Bus, Motor, and Mission.

OBJECT J, 44887 is a satellite in SSO that was launched on Fri, 20 Dec 2019 UTC launched from the Taiyaun Space Center, China (TSC). Unknown objects in Earth's orbit typically refer to objects detected orbiting the Earth but have not yet been identified or cataloged. These objects could be anything from previously untracked satellites, spent rocket stages, debris from satellite collisions, or even natural meteoroids temporarily captured by Earth's gravity.

Loading next visibility...
OBJECT J details
Identifier
44887, 2019-093J
Orbit
SSO
Last TLE update10 hours ago
Origin
Flag of TBDCNSA (TBD)
ManufacturerSAST
MissionNon-operational Commercial Imaging
Bus & MotorUnknown
Mass~200 kg wet, ~200 kg dry
Launch date (UTC)
2019-12-20 (5 years ago)
Launch vehicleUnknown
Launch site
Taiyaun Space Center, China (TSC)
Object typeUnknown
Shape & HBRCyl, Unknown HBR
Radar Cross Section7.858 m², Medium (>0.1 m² and < 1m²)

Expand to show TLE details & history

TLE from 10 hours ago
0 OBJECT J
1 44887U 19093J   24361.49314934  .00005839  00000-0  62637-3 0  9998
2 44887  97.8308  80.7287 0014272  57.4761 302.7833 14.88925262271874
Epoch: 2024-12-26T11:50Z
Definitive object data (Epoch: 2024-12-26T11:50:08.102Z)
Latitude-0.00004°
Longitude167.72319°
Altitude598.943 km
Speed7.563 km/s
True Right ascension05h 22m 54s
True Declination0° 00' 00"
Sunlit
Object was in full shadow at TLE epoch
Visualization TLE readout
Latitude-16.04634°
Longitude170.37361°
Altitude604.686 km
Speed7.558 km/s
Apparent Right ascension06h 55m 11s
Apparent Declination-29° 29' 07"
Sunlit
Object is in full shadow
Visualization observer readout
Local Sidereal Time20:49:26
Azimuth74.799° E
Elevation-64.453°
Doppler factor1
Orbital elements
Apogee altitude608.275 km
Perigee altitude588.361 km
Semi-major axis6,976.455 km
Eccentricity0.0014272
Inclination97.8308°
RAAN80.7287°
Arg. of periapsis57.4761°
True anomaly302.64567°
Mean anomaly302.7833°
Eccentric anomaly302.7145°
Mean motion3.7247 °/min
BSTAR0.00062637
Orbital period96.65 mins
Loading maneuver chart data...
Loading historical data...
Loading historical data...
Loading historical data...
Loading historical data...
Loading historical data...
Loading historical data...
Loading historical data...

OBJECT J Visibility forecast

Observer location: undefined°, undefined

Span
Click to sort rows by Start time (UTC) header in descending order
Start Az.
Max El. time (UTC)
Max El. Az.
Max El.
End time (UTC)
End Az.
6 mins2024-12-27 05:42:27.001Z178.076° S2024-12-27 05:45:27.001Z272.523° WNW42.77°2024-12-27 05:48:27.001Z339.879° N
4 mins2024-12-27 17:28:27.001Z67.202° ENE2024-12-27 17:29:27.001Z84.875° E18.092°2024-12-27 17:32:27.001Z135.292° SSE
5 mins2024-12-27 19:03:27.001Z339.438° N2024-12-27 19:05:27.001Z296.9° NW28.112°2024-12-27 19:08:27.001Z233.51° WSW
|